OPS 5798 DEB, 903

Orbit data source: Space-Track

OPS 5798 DEB, 903 is space debris in LEO originally from a launch on Tue, 06 Oct 1964 UTC launched from the Air Force Western Test Range (AFWTR). Debris objects in space refer to the collection of defunct objects orbiting the Earth. Examples of debris include non-operational satellites, rocket bodies, and fragments generated from explosions, collisions, or faulty payload assembly.

Loading next visibility...
Identifier
903, 1964-063F
Orbit
LEO
Country
Flag of USUS
Related business
Manufacturer
Unknown
Mission
Spacecraft
Bus & Motor
Unknown
Mass
Unknown
Launch date (UTC)
1964-10-06 (62 years ago)
Launch vehicle
Unknown
Launch site
Air Force Western Test Range (AFWTR)
Object type
Payload
Rocket body
Debris
Shape & HBR
Unknown shape, 0.1 m
Radar Cross Section
Small (<0.1 m²)

Expand to show TLE details & history
Last TLE update: 18 hours ago

TLE from 18 hours ago
0 OPS 5798 DEB
1 00903U 64063F   26250.99897851  .00000575  00000-0  53681-3 0  9995
2 00903  90.2199  73.0522 0020781 213.1794 300.2297 13.80843166 85790
Epoch: 2026-09-07T23:58Z
TLE epoch observation values (Epoch: 2026-09-07T23:58:31.743Z)
Latitude
26.83155°
Longitude
-93.5411°
Altitude
956.605 km
Speed
7.38 km/s
True Right ascension
16h 52m 39s
True Declination
26° 41' 49"
Sunlit
Object was in daylight at epoch
Visualization orbit readout
Latitude
Unknown
Longitude
Unknown
Altitude
Unknown
Speed
Unknown
Apparent Right ascension
Unknown
Apparent Declination
Unknown
Sunlit
N/A
Visualization observer readout
Local Sidereal Time
10:20:02
Azimuth
Unknown
Elevation
Unknown
Doppler factor
Unknown
Orbital elements
Apogee altitude
973.148 km
Perigee altitude
942.658 km
Semi-major axis
7,336.04 km
Eccentricity
0.00208
Inclination
90.2199°
RAAN
73.0522°
Arg. of periapsis
213.1794°
True anomaly
300.02368°
Mean anomaly
300.2297°
Eccentric anomaly
300.12672°
Mean motion
3.45423 °/min
Orbital period
104.22 mins
BSTAR
0.00053681
Loading maneuver chart data...
Computing Atmospheric mass density...
Loading historical data...
Loading historical data...
Loading historical data...
Loading historical data...
Loading historical data...
Loading historical data...
Loading historical data...

Documentation

Showing up to 5 results
|